Location: Unspecified
(0.0000°N, 0.0000°E)
Time: 15:29:45
(UTC+00:00)

CZ-3B DEB - Pass Details

Date: 14 November 2025
Orbit: 513 x 39779 km, 23.4° (Epoch: 12 December)

Event Time Altitude Azimuth Distance (km) Brightness Sun altitude
Rises 19:56:45 0° 253° (WSW) 11,042 ? -31.2°
Reaches altitude 10° 20:02:40 10° 255° (WSW) 11,674 ? -32.5°
Maximum altitude 21:31:24 48° 278° (W) 26,164 ? -52.5°
Drops below altitude 10° 02:44:10 10° 290° (WNW) 42,383 ? -42.2°
Sets 04:09:37 0° 292° (WNW) 37,609 ? -22.4°
